| time (UTC) | temp F | wind direction | speed MPH | gust MPH | rain 1hr in | rain 24hr in | rain mn in | humidity % | barometer mb |
| 20260503033026 | 49 | 0.0 | 0.0 | 0.00 | 0.00 | 0.00 | 80 | 1007.3 | |
| 20260503032023 | 49 | 0.0 | 0.0 | 0.00 | 0.00 | 0.00 | 81 | 1007.5 | |
| 20260503031020 | 49 | 0.0 | 0.0 | 0.00 | 0.00 | 0.00 | 80 | 1007.7 | |
| 20260503030018 | 49 | 0.0 | 0.0 | 0.00 | 0.00 | 0.00 | 79 | 1007.6 | |
| 20260503025031 | 49 | 0.0 | 0.0 | 0.00 | 0.00 | 0.00 | 78 | 1007.8 | |
| 20260503024028 | 49 | 0.0 | 0.0 | 0.00 | 0.00 | 0.00 | 78 | 1008.0 | |
| 20260503023026 | 49 | 0.0 | 0.0 | 0.00 | 0.00 | 0.00 | 76 | 1008.1 | |
| 20260503022022 | 49 | 0.0 | 0.0 | 0.00 | 0.00 | 0.00 | 76 | 1008.0 | |
| 20260503021019 | 50 | 0.0 | 0.0 | 0.00 | 0.00 | 0.00 | 76 | 1008.1 | |
| 20260503020016 | 50 | 0.0 | 0.0 | 0.00 | 0.00 | 0.00 | 75 | 1007.8 | |
| 20260503015030 | 51 | 0.0 | 0.0 | 0.00 | 0.00 | 0.00 | 75 | 1007.9 | |
| 20260503014027 | 51 | 0.0 | 0.0 | 0.00 | 0.00 | 0.00 | 75 | 1007.8 | |
| 20260503013024 | 51 | 0.0 | 0.0 | 0.00 | 0.00 | 0.00 | 75 | 1007.8 | |
| 20260503012021 | 52 | 0.0 | 0.0 | 0.00 | 0.00 | 0.00 | 74 | 1008.0 | |
| 20260503011037 | 52 | 0.0 | 0.0 | 0.00 | 0.00 | 0.00 | 73 | 1008.0 | |
| 20260503010031 | 52 | 0.0 | 0.0 | 0.00 | 0.00 | 0.00 | 73 | 1007.7 | |
| 20260503005028 | 53 | 0.0 | 0.0 | 0.00 | 0.00 | 0.00 | 71 | 1007.7 | |
| 20260503004028 | 53 | 0.0 | 0.0 | 0.00 | 0.00 | 0.00 | 71 | 1007.5 | |
| 20260503003024 | 53 | 0.0 | 0.0 | 0.00 | 0.00 | 0.00 | 71 | 1007.5 | |
| 20260503002019 | 53 | 0.0 | 0.0 | 0.00 | 0.00 | 0.00 | 70 | 1007.5 | |
| 20260503001017 | 54 | 0.0 | 0.0 | 0.00 | 0.00 | 0.00 | 70 | 1007.5 | |
| 20260503000030 | 54 | 0.0 | 0.0 | 0.00 | 0.00 | 0.00 | 70 | 1007.3 | |
| 20260502235027 | 55 | 0.0 | 0.0 | 0.00 | 0.00 | 0.00 | 70 | 1007.4 | |
| 20260502234024 | 55 | 0.0 | 0.0 | 0.00 | 0.00 | 0.00 | 69 | 1007.3 | |
| 20260502233043 | 56 | 0.0 | 0.0 | 0.00 | 0.00 | 0.00 | 69 | 1007.5 | |
| 20260502232038 | 56 | 0.0 | 0.0 | 0.00 | 0.00 | 0.00 | 68 | 1007.3 | |
| 20260502231015 | 57 | 0.0 | 0.0 | 0.00 | 0.00 | 0.00 | 67 | 1007.4 | |
| 20260502230030 | 57 | 0.0 | 0.0 | 0.00 | 0.00 | 0.00 | 66 | 1007.4 | |
| 20260502225026 | 57 | 0.0 | 0.0 | 0.00 | 0.00 | 0.00 | 66 | 1007.3 | |
| 20260502224023 | 58 | 0.0 | 0.0 | 0.00 | 0.00 | 0.00 | 65 | 1007.3 | |
| 20260502223020 | 58 | 0.0 | 0.0 | 0.00 | 0.00 | 0.00 | 65 | 1007.1 | |
| 20260502222019 | 59 | 0.0 | 0.0 | 0.00 | 0.00 | 0.00 | 64 | 1007.3 | |
| 20260502221031 | 59 | 0.0 | 0.0 | 0.00 | 0.00 | 0.00 | 63 | 1007.5 | |
| 20260502220049 | 60 | 0.0 | 0.0 | 0.00 | 0.00 | 0.00 | 61 | 1007.3 | |
| 20260502215025 | 60 | 0.0 | 0.0 | 0.00 | 0.00 | 0.00 | 61 | 1007.2 | |
| 20260502214022 | 61 | 0.0 | 0.0 | 0.00 | 0.00 | 0.00 | 61 | 1007.0 | |
| 20260502213039 | 61 | 0.0 | 0.0 | 0.00 | 0.00 | 0.00 | 61 | 1006.8 | |
| 20260502212036 | 62 | 0.0 | 0.0 | 0.00 | 0.00 | 0.00 | 61 | 1007.0 | |
| 20260502211050 | 62 | 0.0 | 0.0 | 0.00 | 0.00 | 0.00 | 60 | 1007.0 | |
| 20260502210047 | 62 | 0.0 | 0.0 | 0.00 | 0.00 | 0.00 | 60 | 1006.9 | |
| 20260502205024 | 62 | 0.0 | 0.0 | 0.00 | 0.00 | 0.00 | 59 | 1007.1 | |
| 20260502204041 | 63 | 0.0 | 0.0 | 0.00 | 0.00 | 0.00 | 59 | 1007.0 | |
| 20260502203018 | 63 | 0.0 | 0.0 | 0.00 | 0.00 | 0.00 | 58 | 1006.6 | |
| 20260502202016 | 65 | 0.0 | 0.0 | 0.00 | 0.00 | 0.00 | 56 | 1007.0 | |
| 20260502201049 | 64 | 0.0 | 0.0 | 0.00 | 0.00 | 0.00 | 57 | 1006.9 | |
| 20260502200026 | 63 | 0.0 | 0.0 | 0.00 | 0.00 | 0.00 | 58 | 1007.3 | |
| 20260502195023 | 64 | 0.0 | 0.0 | 0.00 | 0.00 | 0.00 | 59 | 1007.4 | |
| 20260502194020 | 63 | 0.0 | 0.0 | 0.00 | 0.00 | 0.00 | 59 | 1007.7 | |
| 20260502193016 | 63 | 0.0 | 0.0 | 0.00 | 0.00 | 0.00 | 60 | 1007.7 | |
| 20260502192031 | 64 | 0.0 | 0.0 | 0.00 | 0.00 | 0.00 | 60 | 1007.8 | |
| 20260502191050 | 64 | 0.0 | 0.0 | 0.00 | 0.00 | 0.00 | 61 | 1008.0 | |
| 20260502190025 | 64 | 0.0 | 0.0 | 0.00 | 0.00 | 0.00 | 60 | 1007.8 | |
| 20260502185027 | 64 | 0.0 | 0.0 | 0.00 | 0.00 | 0.00 | 60 | 1007.8 | |
| 20260502184019 | 64 | 0.0 | 0.0 | 0.00 | 0.00 | 0.00 | 59 | 1007.7 | |
| 20260502183016 | 64 | 0.0 | 0.0 | 0.00 | 0.00 | 0.00 | 60 | 1007.9 | |
| 20260502182031 | 65 | 0.0 | 0.0 | 0.00 | 0.00 | 0.00 | 62 | 1007.8 | |
| 20260502181026 | 64 | 0.0 | 0.0 | 0.00 | 0.00 | 0.00 | 65 | 1007.9 | |
| 20260502164033 | 58 | 0.0 | 0.0 | 0.00 | 0.00 | 0.00 | 76 | 1008.8 | |
| 20260502163030 | 58 | 0.0 | 0.0 | 0.00 | 0.00 | 0.00 | 76 | 1008.7 | |
| 20260502162047 | 58 | 0.0 | 0.0 | 0.00 | 0.00 | 0.00 | 76 | 1008.5 | |
| 20260502161025 | 58 | 0.0 | 0.0 | 0.00 | 0.00 | 0.00 | 78 | 1008.7 | |
| 20260502152046 | 56 | 0.0 | 0.0 | 0.00 | 0.00 | 0.00 | 78 | 1009.0 | |
| 20260502151100 | 57 | 0.0 | 0.0 | 0.00 | 0.00 | 0.00 | 78 | 1009.1 | |
| 20260502123026 | 54 | 0.0 | 0.0 | 0.00 | 0.00 | 0.00 | 83 | 1009.1 | |
| 20260502122023 | 53 | 0.0 | 0.0 | 0.00 | 0.00 | 0.00 | 85 | 1009.3 | |
| 20260502121020 | 53 | 0.0 | 0.0 | 0.00 | 0.00 | 0.00 | 85 | 1009.4 | |
| 20260502115031 | 53 | 0.0 | 0.0 | 0.00 | 0.00 | 0.00 | 85 | 1009.2 | |
| 20260502114028 | 53 | 0.0 | 0.0 | 0.00 | 0.00 | 0.00 | 85 | 1009.4 | |
| 20260502113045 | 53 | 0.0 | 0.0 | 0.00 | 0.00 | 0.00 | 86 | 1009.3 | |
| 20260502112022 | 53 | 0.0 | 0.0 | 0.00 | 0.00 | 0.00 | 86 | 1009.5 | |
| 20260502111019 | 53 | 0.0 | 0.0 | 0.00 | 0.00 | 0.00 | 86 | 1009.5 | |
| 20260502110016 | 50 | 0.0 | 0.0 | 0.00 | 0.00 | 0.00 | 86 | 1009.6 | |
| 20260502105030 | 50 | 0.0 | 0.0 | 0.00 | 0.00 | 0.00 | 86 | 1009.4 | |
| 20260502104027 | 50 | 0.0 | 0.0 | 0.00 | 0.00 | 0.00 | 88 | 1009.1 | |
| 20260502103024 | 50 | 0.0 | 0.0 | 0.00 | 0.00 | 0.00 | 88 | 1009.1 | |
| 20260502102023 | 49 | 0.0 | 0.0 | 0.00 | 0.00 | 0.00 | 88 | 1009.0 | |
| 20260502101038 | 49 | 0.0 | 0.0 | 0.00 | 0.00 | 0.00 | 88 | 1009.1 | |
| 20260502091017 | 49 | 0.0 | 0.0 | 0.00 | 0.00 | 0.00 | 86 | 1009.2 | |
| 20260502071031 | 49 | 0.0 | 0.0 | 0.00 | 0.00 | 0.00 | 83 | 1009.4 | |
| 20260502070028 | 49 | 0.0 | 0.0 | 0.00 | 0.00 | 0.00 | 83 | 1009.1 | |
| 20260502065026 | 49 | 0.0 | 0.0 | 0.00 | 0.00 | 0.00 | 83 | 1009.3 | |
| 20260502064022 | 49 | 0.0 | 0.0 | 0.00 | 0.00 | 0.00 | 83 | 1009.5 | |
| 20260502063019 | 49 | 0.0 | 0.0 | 0.00 | 0.00 | 0.00 | 83 | 1009.8 | |
| 20260502062016 | 49 | 0.0 | 0.0 | 0.00 | 0.00 | 0.00 | 84 | 1009.5 | |
| 20260502061030 | 49 | 0.0 | 0.0 | 0.00 | 0.00 | 0.00 | 83 | 1009.8 | |
| 20260502060027 | 49 | 0.0 | 0.0 | 0.00 | 0.00 | 0.00 | 83 | 1009.9 | |
| 20260502055024 | 49 | 0.0 | 0.0 | 0.00 | 0.00 | 0.00 | 83 | 1009.6 | |
| 20260502054021 | 49 | 0.0 | 0.0 | 0.00 | 0.00 | 0.00 | 83 | 1009.4 | |
| 20260502053018 | 49 | 0.0 | 0.0 | 0.00 | 0.00 | 0.00 | 83 | 1009.4 | |
| 20260502052015 | 49 | 0.0 | 0.0 | 0.00 | 0.00 | 0.00 | 83 | 1009.9 | |
| 20260502051029 | 49 | 0.0 | 0.0 | 0.00 | 0.00 | 0.00 | 83 | 1009.6 | |
| 20260502050026 | 49 | 0.0 | 0.0 | 0.00 | 0.00 | 0.00 | 83 | 1009.8 | |
| 20260502045023 | 49 | 0.0 | 0.0 | 0.00 | 0.00 | 0.00 | 81 | 1009.8 | |
| 20260502044020 | 49 | 0.0 | 0.0 | 0.00 | 0.00 | 0.00 | 82 | 1009.8 | |
| 20260502043017 | 49 | 0.0 | 0.0 | 0.00 | 0.00 | 0.00 | 83 | 1009.8 | |
| 20260502042111 | 49 | 0.0 | 0.0 | 0.00 | 0.00 | 0.00 | 82 | 1009.8 | |
| 20260502041028 | 49 | 0.0 | 0.0 | 0.00 | 0.00 | 0.00 | 81 | 1009.9 | |
| 20260502040026 | 50 | 0.0 | 0.0 | 0.00 | 0.00 | 0.00 | 81 | 1009.8 | |
| 20260502035022 | 49 | 0.0 | 0.0 | 0.00 | 0.00 | 0.00 | 80 | 1009.7 | |
| 20260502034019 | 49 | 0.0 | 0.0 | 0.00 | 0.00 | 0.00 | 80 | 1009.7 |